sat.trackr.live / text

‹ back to catalog

STARLINK-35446

NORAD 66432 · 2025-259L

PAYLOAD ACTIVE UNKNOWN

§ Identity

Operator
Country
US
Launch date
2025-11-11
Launch site
AFETR
Launch vehicle
Mass (kg)
RCS (m²)

Purposes: comms

External: N2YO · Heavens-Above · Gunter

§ Orbital elements

Epoch: 2026-05-24T20:41:23.748288Z

Period
94.27 min
Inclination
43.0001°
Eccentricity
0.0000799
Mean motion
15.27587748 rev/d
Perigee alt
482.5 km
Apogee alt
483.6 km
Semi-major
6,861.2 km
B*
4.9072e-5
RAAN
203.9254°
Arg perigee
264.4914°
Mean anomaly
95.5846°
Rev number
3,114

§ Raw data

STARLINK-354461 66432U 25259L   26144.86208042  .00001089  00000+0  49072-4 0  99942 66432  43.0001 203.9254 0000799 264.4914  95.5846 15.27587748 31141

JSON: /api/v1/satellites/66432 · /tle

For live sub-satellite position, see the globe view (requires WebGL).

§ Visibility from observer

Set your observer location to see the next 7 days of passes ≥ 10°. The values pass through the URL so the page stays shareable.

No JS? Fill the form by hand. The geolocation button needs JavaScript.